Location: Poughquag
(41.6090°N, 73.6820°W)
Time: 07:24:15
(UTC-05:00)

Altair - Pass Details

Date: 03 December 2023
Orbit: 1501 x 1682 km, 47.2° (Epoch: 02 March)

Event Time Altitude Azimuth Distance (km) Brightness Sun altitude
Rises 12:59:41 0° 290° (WNW) 4,722 10.1 23.9°
Reaches altitude 10° 13:02:48 10° 293° (WNW) 3,717 9.6 23.7°
Maximum altitude 13:12:10 75° 18° (NNE) 1,557 7.8 23.1°
Drops below altitude 10° 13:21:20 10° 105° (ESE) 3,648 9.5 22.4°
Sets 13:24:21 0° 107° (ESE) 4,631 9.9 22.2°
